Location: Sungai Buloh
(3.1000°N, 113.0000°E)
Time: 15:54:00
(UTC+00:00)

Meteor 1-11 Rocket - Pass Details

Date: 12 January 2026
Orbit: 829 x 915 km, 81.2° (Epoch: 10 February)

Event Time Altitude Azimuth Distance (km) Brightness Sun altitude
Rises 20:19:42 0° 178° (S) 3,544 7.2 -32.8°
Reaches altitude 10° 20:22:12 10° 174° (S) 2,602 6.5 -32.2°
Maximum altitude 20:28:04 61° 95° (E) 1,027 4.2 -30.9°
Enters shadow 20:30:35 34° 29° (NNE) 1,454 4.9 -30.3°
